Weather History for KSLK - December, 2011

Change the Weather History Date:

Thursday, December 15, 2011

  Actual Average Record
Temperature  
Mean Temperature 42 °F 19 °F  
Max Temperature 46 °F 29 °F - ()
Min Temperature 37 °F 9 °F - ()
Degree Days  
Heating Degree Days 23 46  
Month to date heating degree days 532 646  
Since 1 July heating degree days 2329 2921  
Cooling Degree Days 0 0  
Month to date cooling degree days 0  
Year to date cooling degree days 114  
Moisture  
Dew Point 40 °F    
Average Humidity 88    
Maximum Humidity 93    
Minimum Humidity 82    
Precipitation  
Precipitation 0.54 in 0.07 in - ()
Month to date precipitation 1.18 1.26  
Year to date precipitation 42.52 36.49  
Sea Level Pressure  
Sea Level Pressure 29.67 in    
Wind  
Wind Speed 14 mph (SW)    
Max Wind Speed 24 mph    
Max Gust Speed 31 mph    
Visibility 5 miles    
Events Rain , Snow    
T = Trace of Precipitation, MM = Missing Value Source: NWS Daily Summary

Daily Weather History Graph

Daily Weather History Graph

Search for Another Location

Airport or City:

Trip Planner

Search our weather history database for the weather conditions in past years. The results will help you decide how hot, cold, wet, or windy it might be!

Date:

Astronomy

Dec. 15, 2011 Rise Set
Actual Time 7:25 AM EST 4:17 PM EST
Civil Twilight 6:52 AM EST 4:51 PM EST
Nautical Twilight 6:15 AM EST 5:28 PM EST
Astronomical Twilight 5:40 AM EST 6:03 PM EST
Moon 9:51 PM EST (12/15) 10:31 AM EST (12/15)
Length of Visible Light 9h 58m
Length of Day
8h 52m
Waning Gibbous, 75% of the Moon is Illuminated
Dec 15
Waning Gibbous
Dec 17
Last Quarter
Dec 24
New
Jan 1
First Quarter
Jan 9
Full

Hourly Weather History & Observations

Time (EST) Temp. Windchill Dew Point Humidity Pressure Visibility Wind Dir Wind Speed Gust Speed Precip Events Conditions
12:28 AM 37.4 °F 30.8 °F 33.8 °F 87% 29.98 in 10.0 mi SSW 9.2 mph - N/A   Overcast
12:51 AM 37.9 °F 29.2 °F 33.1 °F 83% 30.00 in 10.0 mi SSW 15.0 mph 28.8 mph N/A   Overcast
1:51 AM 37.9 °F 28.5 °F 34.0 °F 86% 29.99 in 10.0 mi SSW 17.3 mph 26.5 mph 0.00 in   Overcast
2:05 AM 37.4 °F 30.3 °F 33.8 °F 87% 29.94 in 4.0 mi SW 10.4 mph - 0.00 in   Overcast
2:23 AM 37.4 °F 29.8 °F 35.6 °F 93% 29.94 in 2.5 mi SW 11.5 mph - 0.01 in Snow Light Snow
2:35 AM 37.4 °F 28.9 °F 35.6 °F 93% 29.92 in 4.0 mi SW 13.8 mph 21.9 mph 0.01 in Rain Light Rain
2:51 AM 37.4 °F 30.3 °F 35.6 °F 93% 29.91 in 5.0 mi SSW 10.4 mph - N/A   Overcast
3:26 AM 37.4 °F 29.8 °F 35.6 °F 93% 29.89 in 5.0 mi SW 11.5 mph - 0.01 in Rain Light Rain
3:41 AM 37.4 °F 29.3 °F 35.6 °F 93% 29.88 in 10.0 mi SW 12.7 mph - 0.01 in   Overcast
3:51 AM 37.9 °F 30.9 °F 36.0 °F 93% 29.92 in 8.0 mi SW 10.4 mph 18.4 mph 0.01 in   Overcast
4:18 AM 39.2 °F 30.2 °F 35.6 °F 87% 29.85 in 9.0 mi SSW 17.3 mph 23.0 mph 0.00 in Rain Light Rain
4:48 AM 39.2 °F 30.8 °F 37.4 °F 93% 29.84 in 8.0 mi SSW 15.0 mph - 0.00 in   Overcast
4:51 AM 39.0 °F 31.4 °F 37.0 °F 93% 29.89 in 9.0 mi SW 12.7 mph - 0.00 in   Overcast
5:16 AM 39.2 °F 31.2 °F 35.6 °F 87% 29.84 in 9.0 mi SW 13.8 mph 23.0 mph N/A   Overcast
5:51 AM 39.0 °F 30.3 °F 37.0 °F 93% 29.88 in 6.0 mi SW 16.1 mph 24.2 mph 0.01 in Rain Light Rain
6:07 AM 39.2 °F 30.5 °F 37.4 °F 93% 29.82 in 8.0 mi SW 16.1 mph 20.7 mph 0.00 in Rain Light Rain
6:51 AM 39.9 °F 31.8 °F 37.0 °F 89% 29.85 in 9.0 mi SSW 15.0 mph 24.2 mph 0.00 in   Overcast
7:51 AM 41.0 °F 33.5 °F 37.9 °F 89% 29.81 in 8.0 mi SW 13.8 mph 25.3 mph N/A   Overcast
8:51 AM 42.1 °F 33.3 °F 37.9 °F 85% 29.75 in 10.0 mi SSW 19.6 mph 27.6 mph 0.00 in   Overcast
9:17 AM 42.8 °F 35.1 °F 39.2 °F 87% 29.70 in 1.8 mi SW 16.1 mph 24.2 mph 0.00 in Rain Light Rain
9:24 AM 42.8 °F 35.4 °F 39.2 °F 87% 29.70 in 1.2 mi SW 15.0 mph 23.0 mph 0.00 in Rain Light Rain
9:31 AM 42.8 °F 36.6 °F 39.2 °F 87% 29.70 in 1.5 mi SW 11.5 mph 23.0 mph 0.01 in Rain Light Rain
9:37 AM 42.8 °F 34.8 °F 39.2 °F 87% 29.70 in 2.5 mi SW 17.3 mph 26.5 mph 0.01 in Rain Light Rain
9:39 AM 42.8 °F 35.4 °F 39.2 °F 87% 29.70 in 3.0 mi SW 15.0 mph 26.5 mph 0.01 in Rain Light Rain
9:51 AM 41.0 °F 32.8 °F 39.0 °F 93% 29.75 in 3.0 mi SW 16.1 mph 21.9 mph 0.01 in Rain Light Rain
9:53 AM 41.0 °F 32.8 °F 39.2 °F 93% 29.71 in 2.5 mi SW 16.1 mph 25.3 mph 0.00 in Rain Light Rain
9:58 AM 41.0 °F 33.9 °F 39.2 °F 93% 29.70 in 1.5 mi SW 12.7 mph 25.3 mph 0.00 in Rain Light Rain
10:16 AM 41.0 °F 32.5 °F 39.2 °F 93% 29.69 in 1.8 mi SW 17.3 mph 24.2 mph 0.01 in Rain Light Rain
10:30 AM 41.0 °F 33.5 °F 39.2 °F 93% 29.68 in 2.5 mi SW 13.8 mph 24.2 mph 0.01 in   Overcast
10:38 AM 42.8 °F 35.4 °F 39.2 °F 87% 29.67 in 5.0 mi SW 15.0 mph 23.0 mph 0.01 in   Overcast
10:51 AM 42.1 °F 34.5 °F 39.0 °F 89% 29.70 in 6.0 mi SW 15.0 mph 23.0 mph 0.01 in   Overcast
11:09 AM 42.8 °F 35.1 °F 39.2 °F 87% 29.66 in 1.8 mi SW 16.1 mph 25.3 mph 0.00 in Rain Light Rain
11:24 AM 42.8 °F 34.8 °F 39.2 °F 87% 29.65 in 1.8 mi SSW 17.3 mph 25.3 mph 0.01 in Rain Light Rain
11:51 AM 43.0 °F 34.8 °F 41.0 °F 93% 29.66 in 2.5 mi SW 18.4 mph 26.5 mph 0.03 in Rain Rain
11:58 AM 42.8 °F 34.8 °F 41.0 °F 93% 29.62 in 3.0 mi SW 17.3 mph - 0.01 in Rain Light Rain
12:09 PM 42.8 °F 34.3 °F 41.0 °F 93% 29.62 in 2.5 mi SW 19.6 mph 25.3 mph 0.02 in Rain Light Rain
12:26 PM 44.6 °F 36.9 °F 42.8 °F 93% 29.61 in 4.0 mi SW 18.4 mph 27.6 mph 0.04 in Rain Rain
12:51 PM 44.1 °F 35.4 °F 42.1 °F 93% 29.63 in 1.8 mi SW 21.9 mph 31.1 mph 0.05 in Rain Light Rain
1:01 PM 44.6 °F 37.8 °F 42.8 °F 93% 29.60 in 1.8 mi SW 15.0 mph 24.2 mph 0.01 in Rain Rain
1:08 PM 44.6 °F 37.2 °F 42.8 °F 93% 29.59 in 2.5 mi SSW 17.3 mph 23.0 mph 0.02 in Rain Rain
1:13 PM 44.6 °F 36.9 °F 42.8 °F 93% 29.59 in 3.0 mi SSW 18.4 mph 25.3 mph 0.02 in Rain Light Rain
1:23 PM 44.6 °F 37.4 °F 42.8 °F 93% 29.59 in 2.0 mi SW 16.1 mph 26.5 mph 0.03 in Rain Light Rain
1:30 PM 44.6 °F 36.4 °F 42.8 °F 93% 29.58 in 1.8 mi SW 20.7 mph 26.5 mph 0.03 in Rain Light Rain
1:33 PM 44.6 °F 36.9 °F 42.8 °F 93% 29.58 in 1.8 mi SW 18.4 mph 26.5 mph 0.03 in Rain Light Rain
1:41 PM 44.6 °F 38.1 °F 42.8 °F 93% 29.58 in 2.0 mi SW 13.8 mph 28.8 mph 0.03 in Rain Light Rain
1:51 PM 44.1 °F 36.8 °F 43.0 °F 96% 29.61 in 2.5 mi SW 16.1 mph 23.0 mph 0.03 in Rain Light Rain
1:59 PM 44.6 °F 38.1 °F 42.8 °F 93% 29.58 in 4.0 mi SW 13.8 mph 25.3 mph 0.00 in Rain Light Rain
2:08 PM 44.6 °F 37.2 °F 42.8 °F 93% 29.58 in 1.8 mi SW 17.3 mph 23.0 mph 0.01 in Rain Rain
2:27 PM 44.6 °F 38.1 °F 42.8 °F 93% 29.57 in 3.0 mi SW 13.8 mph - 0.04 in Rain Light Rain
2:38 PM 44.6 °F 38.8 °F 42.8 °F 93% 29.57 in 2.5 mi SW 11.5 mph - 0.07 in Rain Rain
2:46 PM 44.6 °F 38.4 °F 42.8 °F 93% 29.56 in 6.0 mi SW 12.7 mph - 0.07 in Rain Light Rain
2:51 PM 45.0 °F 38.9 °F 43.0 °F 93% 29.59 in 7.0 mi SW 12.7 mph 19.6 mph 0.07 in Rain Light Rain
3:51 PM 46.0 °F 39.0 °F 44.1 °F 93% 29.58 in 10.0 mi SW 17.3 mph 23.0 mph 0.01 in   Overcast
4:12 PM 44.6 °F 38.4 °F 42.8 °F 93% 29.53 in 7.0 mi SSW 12.7 mph 21.9 mph 0.00 in Rain Light Rain
4:51 PM 45.0 °F 38.5 °F 44.1 °F 97% 29.56 in 4.0 mi SW 13.8 mph 21.9 mph 0.05 in Rain Rain
5:51 PM 46.0 °F 41.0 °F 44.1 °F 93% 29.54 in 4.0 mi SW 10.4 mph - 0.04 in Rain Rain
6:05 PM 46.4 °F 41.9 °F 44.6 °F 93% 29.53 in 2.5 mi WSW 9.2 mph - 0.06 in Rain Heavy Rain
6:14 PM 46.4 °F 41.9 °F 44.6 °F 93% 29.53 in 2.5 mi WSW 9.2 mph 18.4 mph 0.10 in Rain Heavy Rain
6:17 PM 46.4 °F 42.4 °F 44.6 °F 93% 29.54 in 3.0 mi WSW 8.1 mph 18.4 mph 0.11 in Rain Heavy Rain
6:19 PM 46.4 °F 41.9 °F 44.6 °F 93% 29.55 in 2.5 mi WSW 9.2 mph 18.4 mph 0.12 in Rain Heavy Rain
6:26 PM 46.4 °F 41.9 °F 44.6 °F 93% 29.54 in 3.0 mi SW 9.2 mph - 0.14 in Rain Rain
6:46 PM 46.4 °F 41.5 °F 44.6 °F 93% 29.54 in 6.0 mi SW 10.4 mph - 0.17 in Rain Light Rain
6:51 PM 46.0 °F 40.2 °F 44.1 °F 93% 29.57 in 8.0 mi SW 12.7 mph 18.4 mph 0.17 in Rain Light Rain
7:06 PM 46.4 °F 41.1 °F 44.6 °F 93% 29.53 in 7.0 mi SSW 11.5 mph - 0.02 in Rain Light Rain
7:15 PM 46.4 °F 40.7 °F 44.6 °F 93% 29.53 in 10.0 mi SSW 12.7 mph - 0.02 in Rain Light Rain
7:51 PM 45.0 °F 40.6 °F 43.0 °F 93% 29.56 in 10.0 mi SW 8.1 mph 18.4 mph 0.02 in   Overcast
8:17 PM 44.6 °F 39.2 °F 42.8 °F 93% 29.53 in 10.0 mi SW 10.4 mph - 0.00 in Rain Light Rain
8:51 PM 46.0 °F 40.2 °F 44.1 °F 93% 29.55 in 10.0 mi SW 12.7 mph 20.7 mph 0.01 in Rain Light Rain
9:01 PM 46.4 °F 40.4 °F 44.6 °F 93% 29.53 in 10.0 mi SW 13.8 mph 24.2 mph 0.00 in Rain Light Rain
9:46 PM 46.4 °F 41.9 °F 44.6 °F 93% 29.54 in 10.0 mi WSW 9.2 mph - 0.00 in   Overcast
9:51 PM 46.0 °F 41.0 °F 44.1 °F 93% 29.56 in 10.0 mi WSW 10.4 mph 18.4 mph 0.00 in   Overcast
10:42 PM 44.6 °F 39.7 °F 41.0 °F 87% 29.54 in 10.0 mi WSW 9.2 mph 17.3 mph N/A   Overcast
10:51 PM 45.0 °F 38.9 °F 41.0 °F 86% 29.56 in 10.0 mi WSW 12.7 mph 20.7 mph N/A   Overcast
11:07 PM 44.6 °F 39.2 °F 39.2 °F 81% 29.54 in 10.0 mi WSW 10.4 mph 19.6 mph N/A   Overcast
11:51 PM 43.0 °F 37.2 °F 37.9 °F 82% 29.57 in 10.0 mi SW 10.4 mph 19.6 mph N/A   Overcast